Regional Weather Roundup
Issued by NWS

Home | Current Version | Previous Version | Graphics & Text | Print | Product List | Glossary On
Versions: 1 2 3 4 5 6 7 8 9 10 11 12 13 14 15 16 17 18 19 20 21 22 23 24 25 26 27 28 29 30 31 32 33 34 35 36 37 38 39 40 41 42 43 44 45 46 47 48 49 50
000
ASUS43 KIND 061509
RWRIN

WEATHER ROUNDUP FOR INDIANA
NATIONAL WEATHER SERVICE INDIANAPOLIS IN
1000 AM EST FRI MAR 06 2015

NOTE: "FAIR" INDICATES FEW OR NO CLOUDS BELOW 12,000 FEET WITH NO
SIGNIFICANT WEATHER AND/OR OBSTRUCTIONS TO VISIBILITY.

* - STATION DOES NOT REPORT WEATHER SUCH AS PRECIPITATION OR FOG.

+ - STATION NOT QUALITY CONTROLLED BY THE NATIONAL WEATHER SERVICE.
    USE DATA WITH CAUTION...ESPECIALLY DEWPOINT AND RELATIVE
    HUMIDITY OBSERVATIONS.

INZ001>003-010>013-019-020-061600-
NORTHWEST INDIANA

CITY           SKY/WX    TMP DP  RH WIND       PRES   REMARKS
GARY /AIRPORT/ MOSUNNY   12  -2  52 S10       30.47S WCI  -1
KNOX *+          N/A     10  -9  40 SW14      30.48S WCI  -5
LA PORTE +     SUNNY      9   1  71 S9        30.48R WCI  -5
MICHIGAN CITY+ SUNNY     12  -4  48 SW18      30.46F WCI  -5
MONTICELLO +   FAIR       8   2  73 SW9       30.52R WCI  -5
RENSSELAER +   SUNNY     10   7  85 S12       30.50S WCI  -4
VALPARAISO     SUNNY      7  -1  70 S13       30.46F WCI  -9

$$

LMZ046-743>745-061600-
SOUTHERN LAKE MICHIGAN

STATION/POSITION TIME  TEMP WIND        PRES
                       AIR  DIR/SP/G
                 (UTC) (F)  (DEG/KT/KT) (MB)
MICHIGAN CITY    1500    8  170/ 12/ 16   N/A

$$

INZ004-005-014>016-021>024-061600-
NORTH CENTRAL INDIANA

CITY           SKY/WX    TMP DP  RH WIND       PRES   REMARKS
ELKHART        MOSUNNY    9  -2  61 S8        30.47S WCI  -4
GOSHEN         MOSUNNY    8   0  69 S9        30.46F WCI  -5
LOGANSPORT +   SUNNY     10   3  72 S9        30.51F WCI  -2
PERU/GRISSOM   MOSUNNY   10   1  68 S12       30.48S WCI  -5
ROCHESTER +    SUNNY     14   3  62 SW12      30.49F WCI   0
SOUTH BEND     MOSUNNY    9   0  67 SW14      30.47R WCI  -7
WARSAW +       SUNNY     12   0  57 SW8       30.47F WCI   1

$$

INZ006>009-017-018-025>027-061600-
NORTHEAST INDIANA

CITY           SKY/WX    TMP DP  RH WIND       PRES   REMARKS
ANGOLA *+      SUNNY      9  -2  61 SW8       30.44F WCI  -4
AUBURN +       MOSUNNY   14   3  62 SW7       30.48F WCI   4
FORT WAYNE     PTSUNNY    9   2  73 S9        30.50F WCI  -4
HUNTINGTON +   SUNNY     10  -3  56 S6        30.49F WCI   0

$$

INZ028-029-035-036-043>045-051>053-061600-
WEST CENTRAL INDIANA

CITY           SKY/WX    TMP DP  RH WIND       PRES   REMARKS
CRAWFORDSVL +  SUNNY     10  -1  60 S7        30.52S WCI  -1
GREENCASTLE +  SUNNY     12   1  62 S7        30.52F WCI   2
LAFAYETTE      SUNNY     10   3  73 SW7       30.53R WCI  -1
TERRE HAUTE    SUNNY     13   5  70 S5        30.56S WCI   5

$$

INZ030>032-037>040-046>048-054>057-064-065-061600-
CENTRAL INDIANA

CITY           SKY/WX    TMP DP  RH WIND       PRES   REMARKS
CP ATTERBURY + SUNNY     18   9  68 S7        30.56F WCI   8
COLUMBUS       MOSUNNY   14   3  62 SE5       30.57S WCI   6
FRANKFORT +    SUNNY     11   8  87 S8        30.51S WCI  -1
GREENWOOD *+   SUNNY     12   1  62 SE9       30.53F WCI   0
INDIANAPOLIS   MOSUNNY   13   3  64 S9        30.51F WCI   1
-EAGLE CREEK   SUNNY     14   4  64 S9        30.52F WCI   2
KOKOMO *+        N/A    N/A N/A N/A MISG        N/A
MARION +       MOSUNNY    9   2  72 S9        30.51F WCI  -4
MT COMFORT *+  SUNNY     12   0  57 S8        30.52F WCI   1
SHELBYVILLE    SUNNY     14   7  73 S7        30.54S WCI   4
ZIONSVILLE +   SUNNY     15   4  62 S12       30.51S WCI   1

$$

INZ033-034-041-042-049-050-058-059-061600-
EAST CENTRAL INDIANA

CITY           SKY/WX    TMP DP  RH WIND       PRES   REMARKS
MUNCIE         SUNNY     14   3  61 S9        30.51S WCI   2

$$

INZ060-061-067>069-081>083-085>088-061600-
SOUTHWEST INDIANA

CITY           SKY/WX    TMP DP  RH WIND       PRES   REMARKS
EVANSVILLE     SUNNY     14   7  73 CALM      30.61R
HUNTINGBURG *+ SUNNY     10   7  85 S6        30.58F WCI   1
WASHINGTON +   SUNNY     13   4  68 S5        30.58R WCI   5

$$

INZ062-063-066-070>080-084-089>092-061600-
SOUTH CENTRAL AND SOUTHEAST INDIANA

CITY           SKY/WX    TMP DP  RH WIND       PRES   REMARKS
BEDFORD +      MOSUNNY   16   7  67 SE6       30.55S WCI   7
BLOOMINGTON    MOSUNNY   14   6  70 S6        30.54S WCI   5
NORTH VERNON + SUNNY     16   9  73 S7        30.56F WCI   6
SEYMOUR +      SUNNY     16   7  67 W5        30.59S WCI   9

$$



USA.gov is the U.S. government's official web portal to all federal, state and local government web resources and services.